Location: Conty
(49.7410°N, 2.1512°E)
Time: 08:52:21
(UTC+00:00)

Daily predictions for brighter satellites

Satellite Brightness Start Highest point End
(mag) Time Altitude Azimuth Time Altitude Azimuth Time Altitude Azimuth
Cosmos 1980 Rocket 3.0 18:00:19 10° SSE 18:05:06 29° ESE 18:09:53 10° NE
ATLAS 2AS CENTAUR R/B 4.1 18:00:16 10° W 18:07:19 38° NNW 18:14:04 10° NE
ASTEX 1 3.5 18:03:05 10° NNE 18:07:59 55° E 18:12:52 10° S
CZ-4C R/B 4.3 18:04:16 10° N 18:08:32 57° WNW 18:12:39 10° SSW
NOSS 2-2 (C) 4.4 18:04:02 10° NW 18:08:50 78° SW 18:15:39 10° SE
SKYMED 3 4.4 18:04:46 10° NNE 18:08:54 67° ESE 18:12:59 10° S
Cosmos 2369 4.3 18:05:21 10° S 18:10:28 35° ESE 18:15:35 10° NE
Cosmos 1626 2.0 18:07:15 10° N 18:10:53 86° ENE 18:14:31 10° S
USA 229 DEB 4.0 18:05:50 10° NW 18:13:11 86° NE 18:21:03 10° SE
USA 229 4.0 18:05:56 10° NW 18:13:16 86° NE 18:21:09 10° SE
Cosmos 540 Rocket 3.4 18:10:30 10° NNW 18:15:37 71° ENE 18:20:43 10° SSE
Cosmos 1674 Rocket 4.2 18:14:22 10° N 18:18:27 36° ENE 18:22:31 10° SE
YAOGAN 1 2.6 18:15:21 10° SSE 18:19:36 62° ENE 18:23:53 10° N
SKYMED 2 3.7 18:15:18 10° NNE 18:19:40 81° WNW 18:24:01 10° SSW
Cosmos 841 Rocket 3.6 18:17:36 10° NNW 18:22:44 55° ENE 18:27:47 10° SE
SL-4 R/B 2.4 18:18:23 10° W 18:22:48 70° N 18:27:05 12° E
SL-16 R/B 3.9 18:21:29 10° ESE 18:22:55 11° E 18:24:21 10° E
OBJECT-B 1.9 18:25:24 14° E 18:26:30 18° ENE 18:28:21 10° NNE
Cosmos 1954 Rocket 4.1 18:24:42 10° SSW 18:29:52 80° WNW 18:35:05 10° NNE
Cosmos 1844 Rocket 4.3 18:26:43 10° N 18:30:47 20° NE 18:34:20 12° ENE
Cosmos 1763 Rocket 4.2 18:26:39 10° NNW 18:31:37 56° WSW 18:36:34 10° S
Cosmos 2279 Rocket 4.0 18:25:54 10° N 18:32:12 84° E 18:38:28 10° S
Meteor 2-10 4.4 18:27:05 10° SSE 18:32:30 48° E 18:37:49 10° NNE
H-2A R/B 4.2 18:32:30 12° ENE 18:33:33 13° ENE 18:35:28 10° NNE
ISS -3.8 18:30:50 10° WNW 18:34:13 87° NNE 18:36:41 17° ESE
Cosmos 2180 Rocket 4.5 18:29:02 10° N 18:35:16 70° ENE 18:41:32 10° SSE
Cosmos 2221 Rocket 3.6 18:30:53 10° N 18:35:24 69° ENE 18:39:55 10° SSE
Cosmos 2219 4.2 18:32:17 10° NW 18:37:51 51° WSW 18:43:23 10° S
SL-14 R/B 3.2 18:35:46 10° N 18:39:43 65° E 18:43:39 10° SSE
Aureole 1 4.1 18:38:29 10° SSW 18:41:29 77° ESE 18:44:53 10° NNE
Meteor 2-5 Rocket 4.4 18:37:19 10° N 18:42:16 32° ENE 18:46:13 14° ESE
Resurs 01 Rocket 3.4 18:42:03 14° ENE 18:43:10 15° ENE 18:45:42 10° NNE
HJ-1C 3.3 18:40:23 10° S 18:43:30 77° W 18:46:38 10° NNW
Cosmos 2360 4.4 18:41:25 10° SSW 18:47:09 80° WNW 18:52:56 10° NNE
NOSS 7 (H) 4.4 18:44:04 10° NW 18:47:13 71° NE 18:50:04 18° SE
Cosmos 1805 3.1 18:44:12 10° S 18:48:04 78° E 18:51:58 10° NNE
Cosmos 1378 Rocket 3.5 18:44:01 10° N 18:48:26 68° E 18:52:46 10° SSE
Cosmos 2263 Rocket 2.2 18:42:56 10° NNW 18:48:39 71° ENE 18:54:19 10° SE
Cosmos 1741 Rocket 4.1 18:45:50 10° S 18:50:59 57° ESE 18:56:10 10° NNE
USA 186 2.4 18:49:21 21° SE 18:51:05 37° ENE 18:54:09 10° N
USA 215 3.7 18:45:26 10° ENE 18:51:51 60° NNW 18:58:15 10° W
IRIDIUM 114 4.3 18:46:50 10° SSE 18:51:57 59° E 18:57:05 10° N
IGS 5A 3.9 18:53:35 17° SE 18:56:21 42° ENE 19:00:16 10° N
Cosmos 2082 4.2 18:51:50 10° NNW 18:57:31 64° WSW 19:03:10 10° SSE
Cosmos 1733 Rocket 3.3 18:55:41 10° SSW 19:00:06 76° W 19:04:36 10° N
Cosmos 1766 3.3 18:56:45 10° S 19:00:33 52° E 19:04:23 10° NNE
ARGOS Delta rocket 4.4 18:55:15 10° N 19:00:38 71° WNW 19:05:44 10° SSW
IRIDIUM 103 4.2 18:55:54 10° S 19:01:04 70° E 19:06:17 10° N
Meteor 2-14 Rocket 4.3 18:55:17 10° S 19:01:20 74° E 19:07:23 10° NNE
Cosmos 1242 Rocket 3.2 18:59:20 10° SSW 19:02:51 58° WNW 19:06:23 10° N
Cosmos 1814 Rocket 4.0 18:57:59 10° NNW 19:03:15 63° ENE 19:07:02 18° SE
Okean-O 2.9 19:00:42 19° SE 19:03:38 48° ENE 19:07:55 10° N
Cosmos 1726 1.9 19:02:10 10° S 19:05:48 77° E 19:09:28 10° NNE
Resurs 1-3 4.0 19:05:38 25° ESE 19:07:42 42° ENE 19:11:51 10° N
Cosmos 1697 Rocket 3.4 19:03:30 10° SW 19:09:01 56° NW 19:14:35 10° NNE
CSL-04 Debris 4.1 19:06:33 10° SSE 19:11:56 74° ENE 19:17:21 10° NNW
Cosmos 2084 3.2 19:11:26 10° SW 19:15:15 80° NW 19:18:22 15° NE
USA-17 4.4 19:12:32 10° NW 19:15:42 71° NE 19:16:45 42° ESE
IRS-1C Rocket 4.1 19:12:10 18° SE 19:16:03 63° ENE 19:21:16 10° N
Meteor 2-21 Rocket 4.3 19:11:11 10° S 19:17:11 69° E 19:23:12 10° NNE
IRIDIUM 106 4.3 19:14:08 10° S 19:19:22 84° W 19:24:37 10° N
Cosmos 489 Rocket 4.4 19:16:35 10° S 19:22:50 63° ESE 19:29:05 10° NNE
SPOT 1/Viking Rocket 4.2 19:22:41 31° E 19:23:51 35° ENE 19:28:31 10° N
Cosmos 1470 3.6 19:28:31 33° NE 19:28:31 33° NE 19:31:05 10° NNE
CZ-4 R/B 3.0 19:25:17 10° SSW 19:29:09 36° W 19:33:03 10° NNW
Cosmos 2285 Rocket 4.0 19:26:23 10° NNW 19:32:46 88° WSW 19:37:14 21° SSE
CRYOSAT 2 4.3 19:29:50 23° SSE 19:32:54 71° E 19:37:48 10° N
MINOTAUR IV R/B 4.4 19:29:02 10° SSW 19:33:32 74° ESE 19:38:03 10° NNE
Meteor 2-16 Rocket 4.3 19:28:54 10° S 19:35:01 79° E 19:41:12 10° NNE
Meteor 1-12 Rocket 4.3 19:29:16 10° S 19:35:16 88° ESE 19:41:20 10° NNE
deb Chang Zheng 4 3.5 19:35:01 53° E 19:35:25 56° ENE 19:39:29 10° N
Okean O Rocket 3.6 19:34:00 10° SSW 19:37:45 28° W 19:41:33 10° NW
BREEZE M DEB (TANK) 4.0 19:34:52 10° SSW 19:38:08 22° S 19:38:08 22° S
SJ-6B 3.0 19:37:27 29° S 19:39:11 63° WSW 19:42:56 10° NNW
Cosmos 2322 Rocket 4.3 19:43:56 12° NE 19:43:56 12° NE 19:44:25 10° NE
BREEZE-M DEB (TANK) 4.3 19:37:34 10° WSW 19:39:40 22° SSW 19:39:57 22° SSW
Cosmos 2026 Rocket 3.9 19:33:48 10° S 19:39:43 58° E 19:45:39 10° NNE
JB-3 4.2 19:37:13 10° NNE 19:41:19 73° E 19:42:18 49° S
Cosmos 1553 Rocket 4.3 19:36:52 10° N 19:42:57 47° ENE 19:44:28 40° ESE
CSL-04 Rocket 3.8 19:38:43 16° S 19:43:05 73° WSW 19:48:30 10° NNW
Cosmos 1908 Rocket 3.6 19:39:04 10° SSW 19:43:24 76° WNW 19:47:45 10° N
Nadezhda 4 Rocket 4.3 19:40:03 10° SSW 19:46:21 69° WNW 19:52:41 10° N
MetOp-A 3.3 19:48:59 63° NE 19:48:59 63° NE 19:52:30 10° N
Cosmos 1980 Rocket 2.9 19:43:17 10° SW 19:48:49 54° NW 19:54:21 10° NNE
Cosmos 968 Rocket 3.4 19:45:30 10° S 19:50:42 66° ESE 19:55:55 10° NNE
Cosmos 1782 Rocket 3.3 19:50:50 72° E 19:50:51 72° E 19:55:12 10° NNE
Landsat 5 4.1 19:49:56 10° N 19:54:24 62° WNW 19:58:49 10° SSW
OBJECT-B 3.0 19:56:15 18° WSW 19:56:30 18° W 19:58:23 10° NW
Meteor 1-24 Rocket 3.6 19:53:04 10° NNW 19:58:24 80° W 20:00:31 38° S
Landsat 7 4.0 19:58:02 40° S 19:59:42 70° WSW 20:04:26 10° NNW
ATLAS 2AS CENTAUR R/B 4.4 19:54:07 10° NW 20:00:18 27° N 20:05:21 13° NE
Cosmos 1437 Rocket 3.0 20:00:09 55° WSW 20:00:38 61° WNW 20:04:22 10° N
Spot 2 4.1 20:01:39 64° NNE 20:01:39 64° NNE 20:05:23 10° NNW
Cosmos 2278 3.9 19:56:23 10° SW 20:02:04 72° WNW 20:07:46 10° NNE
Ariane Rocket 3.4 20:02:33 46° NE 20:02:33 46° NE 20:07:05 10° N
SL-4 R/B 2.3 19:57:53 10° WNW 20:02:24 66° SSW 20:02:29 66° SSW
SL-16 R/B 2.1 20:00:18 10° SSW 20:05:54 66° ESE 20:11:32 10° NNE
ERS-1 Rocket 4.5 20:07:59 23° NE 20:07:59 23° NE 20:10:52 10° N
Cosmos 1570 Rocket 4.4 20:01:48 10° NNW 20:07:00 61° WSW 20:08:41 40° SSW
Cosmos 2292 Rocket 4.5 20:02:12 10° SSW 20:07:51 56° W 20:12:08 10° N
H-2A R/B 2.7 20:08:58 64° NW 20:08:58 64° NW 20:12:23 10° NNW
Meteor 1-22 Rocket 4.1 20:03:51 10° SSW 20:09:13 80° WNW 20:14:49 10° N
ISS -1.5 20:07:49 10° W 20:09:34 21° WSW 20:09:34 21° WSW
MOS 1 4.1 20:10:29 61° SSE 20:11:32 84° ENE 20:17:14 10° NNW
Cosmos 1025 Rocket 3.2 20:10:53 10° NNW 20:14:56 67° WNW 20:14:56 67° WNW
Cosmos 1844 Rocket 2.5 20:10:00 10° NNW 20:15:42 74° ENE 20:16:00 72° E
Cosmos 2278 Rocket 3.9 20:13:11 10° N 20:17:08 19° NE 20:17:26 19° NE
Resurs 01 Rocket 1.9 20:19:37 67° NW 20:19:37 67° NW 20:23:31 10° NNW
Cosmos 1975 Rocket 3.5 20:16:20 10° NNW 20:20:42 58° W 20:20:46 57° W
Terra 3.7 20:23:49 20° NNE 20:23:49 20° NNE 20:25:51 10° N
Cosmos 1092 Rocket 4.3 20:16:05 10° SSW 20:22:21 65° WNW 20:28:37 10° N
Cosmos 2084 Rocket 4.5 20:19:31 10° NW 20:21:58 38° NW 20:21:58 38° NW
Cosmos 836 Rocket 4.5 20:19:52 10° NNW 20:24:57 80° N 20:24:57 80° N
SPOT 5 4.2 20:32:25 31° NNE 20:32:25 31° NNE 20:35:14 10° N
Cosmos 1943 Rocket 4.5 20:29:40 10° N 20:31:27 11° NNE 20:32:30 11° NE
Cosmos 2263 Rocket 4.3 20:27:46 10° NW 20:32:02 22° WSW 20:36:04 11° SSW
Cosmos 1844 3.6 20:28:29 10° NNW 20:33:42 78° N 20:33:42 78° N
USA 215 3.9 20:31:46 32° NE 20:34:19 48° N 20:40:32 10° WNW
S3M 4.0 20:45:10 10° N 20:50:55 75° N 20:50:55 75° N
MetOp-B 4.5 20:52:36 62° NW 20:52:36 62° NW 20:57:10 10° NNW
Cosmos 2360 Rocket 4.5 21:02:36 13° NNE 21:02:36 13° NNE 21:03:13 10° NNE
USA 281 3.3 21:06:58 71° N 21:06:58 71° N 21:12:55 10° NNW
Gbstr 26 Del rocket 4.4 21:14:31 10° W 21:22:31 82° NNW 21:22:31 82° NNW
Cosmos 2322 Rocket 3.6 21:25:40 32° N 21:25:40 32° N 21:28:51 10° NNE
SL-16 R/B 3.9 21:45:35 10° WSW 21:50:28 29° NW 21:55:22 10° NNE
ATLAS 2AS CENTAUR R/B 3.7 21:46:29 10° NW 21:52:45 38° NNE 21:52:45 38° NNE
Terra 4.3 22:02:43 18° NNW 22:02:43 18° NNW 22:04:05 10° NNW
Cosmos 2278 Rocket 3.9 21:56:36 10° NNW 21:59:16 28° NNW 21:59:16 28° NNW
NOSS 3-4 (A) 4.5 21:57:22 10° NW 22:02:03 49° NW 22:02:03 49° NW
NOSS 3-4 (C) 4.5 21:57:28 10° NW 22:02:09 49° NW 22:02:09 49° NW
Cosmos 2369 Rocket 4.5 22:12:48 10° N 22:15:21 17° NNE 22:15:21 17° NNE
USA 215 4.2 22:19:07 42° NW 22:19:07 42° NW 22:23:21 10° WNW
Cosmos 1943 Rocket 4.3 22:11:55 10° NNW 22:14:00 21° N 22:14:00 21° N
Cosmos 2360 Rocket 4.4 22:44:19 20° N 22:44:19 20° N 22:46:49 10° NNE
